Location: ??????
(55.2000°N, 38.3000°E)
Time: 08:52:40
(UTC+00:00)

Cosmos 1939 Rocket - Pass Details

Date: 15 November 2025
Orbit: 491 x 528 km, 97.5° (Epoch: 14 December)

Event Time Altitude Azimuth Distance (km) Brightness Sun altitude
Rises 01:47:06 0° 18° (NNE) 2,686 6.6 -27.1°
Reaches altitude 10° 01:49:19 10° 25° (NNE) 1,789 5.8 -26.8°
Maximum altitude 01:53:01 44° 99° (E) 743 3.8 -26.2°
Enters shadow 01:53:42 39° 129° (SE) 799 3.9 -26.1°
